Satellite-Ground Cal/Val Region Overpasses Predictions

Prediction of Satellite NPP Overpassing Cal/Val Region: PacNW

Region Location: (Latitude: 10.00, Longitude: 139.50) to (Latitude: 22.70, Longitude: 165.60).

Table of predicted overpasses for the next 14.0 days since TLE Epoch: 12/2/2023
Interval Starting Time Starting Location Ending Time Ending Location
1 12/02/2023 15:30:48 ( 22.65, 152.33) 12/02/2023 15:34:23 ( 10.03, 149.33)
2 12/03/2023 02:39:53 ( 10.04, 159.86) 12/03/2023 02:43:28 ( 22.66, 156.86)
3 12/03/2023 15:11:46 ( 22.65, 157.09) 12/03/2023 15:15:21 ( 10.03, 154.09)
4 12/04/2023 02:20:51 ( 10.04, 164.62) 12/04/2023 02:24:26 ( 22.67, 161.62)
5 12/04/2023 14:52:42 ( 22.70, 161.86) 12/04/2023 14:56:18 ( 10.02, 158.84)
6 12/05/2023 03:43:17 ( 10.00, 144.01) 12/05/2023 03:46:53 ( 22.69, 141.00)
7 12/05/2023 14:34:51 ( 18.53, 165.59) 12/05/2023 14:37:16 ( 10.01, 163.60)
8 12/05/2023 16:15:10 ( 22.68, 141.24) 12/05/2023 16:17:12 ( 15.52, 139.50)
9 12/06/2023 03:24:15 ( 10.02, 148.77) 12/06/2023 03:27:51 ( 22.70, 145.75)
10 12/06/2023 15:56:08 ( 22.67, 146.00) 12/06/2023 15:59:43 ( 10.05, 143.00)
11 12/07/2023 03:05:12 ( 10.03, 153.53) 12/07/2023 03:08:47 ( 22.65, 150.53)
12 12/07/2023 15:37:05 ( 22.65, 150.75) 12/07/2023 15:40:40 ( 10.03, 147.75)
13 12/08/2023 02:46:10 ( 10.05, 158.28) 12/08/2023 02:49:45 ( 22.67, 155.28)
14 12/08/2023 15:18:02 ( 22.69, 155.52) 12/08/2023 15:21:38 ( 10.01, 152.51)
15 12/09/2023 02:27:06 ( 10.01, 163.05) 12/09/2023 02:30:42 ( 22.69, 160.04)
16 12/09/2023 14:58:59 ( 22.67, 160.28) 12/09/2023 15:02:34 ( 10.05, 157.28)
17 12/10/2023 02:10:45 ( 19.48, 165.59) 12/10/2023 02:11:39 ( 22.65, 164.81)
18 12/10/2023 03:49:34 ( 10.04, 142.43) 12/10/2023 03:53:04 ( 22.37, 139.51)
19 12/10/2023 14:39:57 ( 22.65, 165.04) 12/10/2023 14:43:32 ( 10.03, 162.04)
20 12/10/2023 16:21:27 ( 22.64, 139.66) 12/10/2023 16:21:37 ( 22.06, 139.51)
21 12/11/2023 03:30:30 ( 10.00, 147.20) 12/11/2023 03:34:06 ( 22.68, 144.19)
22 12/11/2023 16:02:23 ( 22.68, 144.43) 12/11/2023 16:05:58 ( 10.06, 141.43)
23 12/12/2023 03:11:28 ( 10.03, 151.96) 12/12/2023 03:15:03 ( 22.65, 148.96)
24 12/12/2023 15:43:21 ( 22.65, 149.18) 12/12/2023 15:46:56 ( 10.03, 146.18)
25 12/13/2023 02:52:25 ( 10.06, 156.71) 12/13/2023 02:56:00 ( 22.68, 153.71)
26 12/13/2023 15:24:17 ( 22.68, 153.95) 12/13/2023 15:27:53 ( 10.00, 150.94)
27 12/14/2023 02:33:22 ( 10.03, 161.48) 12/14/2023 02:36:57 ( 22.65, 158.48)
28 12/14/2023 15:05:15 ( 22.65, 158.71) 12/14/2023 15:08:50 ( 10.03, 155.71)
29 12/15/2023 02:15:07 ( 12.82, 165.60) 12/15/2023 02:17:55 ( 22.68, 163.23)
30 12/15/2023 03:55:49 ( 10.01, 140.87) 12/15/2023 03:57:29 ( 15.89, 139.51)
